Belleville, IL

2:45 PM CST on January 21, 2018 (GMT -0600)
Scott Air Force Base-Midamerica

Weather History for KBLV - September, 2013

Change the Weather History Date:

Sunday, September 29, 2013

  Actual Average Record
Temperature  
Mean Temperature 66 °F -  
Max Temperature 76 °F 78 °F 101 °F (1953)
Min Temperature 55 °F 50 °F 35 °F (1992)
Growing Degree Days 16 (Base 50)    
Moisture  
Dew Point 61 °F    
Average Humidity 89    
Maximum Humidity 100    
Minimum Humidity 45    
Precipitation  
Precipitation 0.29 in - - ()
Sea Level Pressure  
Sea Level Pressure 30.02 in    
Wind  
Wind Speed 7 mph (NW)    
Max Wind Speed 17 mph    
Max Gust Speed 22 mph    
Visibility 9 miles    
Events Rain    
Averages and records for this station are not official NWS values.
T = Trace of Precipitation, MM = Missing Value Source: NWS Daily Summary

Daily Weather History Graph

Daily Weather History Graph

Search for Another Location

Airport or City:

Trip Planner

Search our weather history database for the weather conditions in past years. The results will help you decide how hot, cold, wet, or windy it might be!

Date:

Astronomy

Sep. 29, 2013 Rise Set
Actual Time 6:53 AM CDT 6:44 PM CDT
Civil Twilight 6:27 AM CDT 7:11 PM CDT
Nautical Twilight 5:56 AM CDT 7:41 PM CDT
Astronomical Twilight 5:25 AM CDT 8:12 PM CDT
Moon 1:38 AM CDT (9/29) 3:38 PM CDT (9/29)
Length of Visible Light 12h 44m
Length of Day
11h 51m
Waning Crescent, 27% of the Moon is Illuminated
Sep 29
Waning Crescent
Oct 4
New
Oct 11
First Quarter
Oct 18
Full
Oct 26
Last Quarter

Hourly Weather History & Observations

Time (CDT) Temp. Dew Point Humidity Pressure Visibility Wind Dir Wind Speed Gust Speed Precip Events Conditions
12:08 AM 68.0 °F 66.2 °F 94% 30.00 in 10.0 mi West 5.8 mph - N/A   Light Drizzle
12:28 AM 68.0 °F 66.2 °F 94% 30.00 in 8.0 mi WNW 3.5 mph - N/A Rain Light Rain
12:53 AM 68.0 °F 68.0 °F 100% 30.00 in 4.0 mi West 5.8 mph - N/A Rain Rain
12:58 AM 67.6 °F 67.3 °F 99% 30.00 in 3.0 mi WSW 5.8 mph - 0.06 in Rain Rain
1:08 AM 68.0 °F 68.0 °F 100% 30.00 in 4.0 mi SW 4.6 mph - N/A Rain Light Rain
1:23 AM 68.0 °F 68.0 °F 100% 29.99 in 7.0 mi South 4.6 mph - N/A   Light Drizzle
1:27 AM 68.0 °F 68.0 °F 100% 29.99 in 9.0 mi South 4.6 mph - N/A   Overcast
1:30 AM 68.0 °F 68.0 °F 100% 29.99 in 9.0 mi South 5.8 mph - N/A   Light Drizzle
1:42 AM 68.0 °F 68.0 °F 100% 29.99 in 9.0 mi South 6.9 mph - N/A   Overcast
1:47 AM 68.0 °F 68.0 °F 100% 29.99 in 10.0 mi South 9.2 mph - N/A   Overcast
1:58 AM 67.6 °F 67.5 °F 99% 29.99 in 10.0 mi South 6.9 mph - 0.06 in   Overcast
2:08 AM 68.0 °F 68.0 °F 100% 29.99 in 9.0 mi South 4.6 mph - N/A   Overcast
2:13 AM 68.0 °F 68.0 °F 100% 29.99 in 8.0 mi South 4.6 mph - N/A   Overcast
2:18 AM 68.0 °F 68.0 °F 100% 29.99 in 9.0 mi SW 3.5 mph - N/A   Overcast
2:23 AM 68.0 °F 68.0 °F 100% 29.99 in 10.0 mi West 2.3 mph - N/A   Overcast
2:25 AM 68.0 °F 68.0 °F 100% 29.99 in 9.0 mi West 4.6 mph - N/A   Light Drizzle
2:30 AM 68.0 °F 68.0 °F 100% 29.99 in 7.0 mi WNW 6.9 mph - N/A Rain Light Rain
2:35 AM 68.0 °F 66.2 °F 94% 29.99 in 7.0 mi West 6.9 mph - N/A Rain Light Rain
2:50 AM 66.2 °F 66.2 °F 100% 30.00 in 5.0 mi NNW 5.8 mph - N/A Rain Rain
2:55 AM 66.2 °F 66.2 °F 100% 30.00 in 7.0 mi NNW 10.4 mph - N/A Rain Light Rain
2:58 AM 66.7 °F 66.4 °F 99% 30.00 in 8.0 mi NNW 10.4 mph - 0.04 in Rain Light Rain
3:03 AM 66.2 °F 66.2 °F 100% 30.00 in 9.0 mi NW 11.5 mph - N/A Rain Light Rain
3:08 AM 66.2 °F 66.2 °F 100% 30.00 in 4.0 mi NNW 13.8 mph - N/A Rain Heavy Rain
3:18 AM 64.4 °F 64.4 °F 100% 30.00 in 9.0 mi NNW 15.0 mph - N/A Rain Rain
3:23 AM 64.4 °F 64.4 °F 100% 30.01 in 10.0 mi NNW 16.1 mph - N/A Rain Light Rain
3:38 AM 62.6 °F 62.6 °F 100% 30.01 in 9.0 mi NNW 12.7 mph - N/A Rain Rain
3:43 AM 62.6 °F 62.6 °F 100% 30.01 in 10.0 mi NNW 11.5 mph - N/A Rain Light Rain
3:58 AM 62.2 °F 61.9 °F 99% 30.01 in 10.0 mi NNW 16.1 mph 21.9 mph 0.12 in Rain Light Rain
4:08 AM 60.8 °F 60.8 °F 100% 30.01 in 10.0 mi NNW 15.0 mph - N/A Rain Light Rain
4:13 AM 60.8 °F 60.8 °F 100% 30.01 in 10.0 mi NNW 17.3 mph - N/A Rain Light Rain
4:18 AM 60.8 °F 60.8 °F 100% 30.01 in 10.0 mi NNW 17.3 mph - N/A   Overcast
4:23 AM 60.8 °F 59.0 °F 94% 30.01 in 10.0 mi NNW 13.8 mph - N/A   Overcast
4:53 AM 59.0 °F 59.0 °F 100% 30.02 in 10.0 mi NNW 10.4 mph - N/A   Overcast
4:58 AM 59.4 °F 59.0 °F 99% 30.02 in 10.0 mi NNW 11.5 mph - 0.01 in   Overcast
5:16 AM 59.0 °F 59.0 °F 100% 30.02 in 10.0 mi NNW 12.7 mph - N/A Rain Light Rain
5:26 AM 59.0 °F 59.0 °F 100% 30.03 in 10.0 mi NNW 9.2 mph - N/A Rain Light Rain
5:28 AM 59.0 °F 59.0 °F 100% 30.03 in 10.0 mi NNW 6.9 mph - N/A   Overcast
5:33 AM 59.0 °F 59.0 °F 100% 30.03 in 10.0 mi NNW 8.1 mph - N/A   Overcast
5:38 AM 59.0 °F 59.0 °F 100% 30.04 in 10.0 mi NNW 6.9 mph - N/A   Overcast
5:48 AM 59.0 °F 59.0 °F 100% 30.04 in 10.0 mi NNW 6.9 mph - N/A   Overcast
5:58 AM 59.2 °F 58.8 °F 99% 30.04 in 10.0 mi NNW 6.9 mph - 0.00 in   Mostly Cloudy
6:58 AM 59.2 °F 58.8 °F 99% 30.06 in 10.0 mi NNW 8.1 mph - N/A   Overcast
7:58 AM 59.4 °F 58.1 °F 96% 30.04 in 10.0 mi NNW 8.1 mph - N/A   Overcast
8:58 AM 60.4 °F 57.0 °F 88% 30.06 in 10.0 mi North 5.8 mph - N/A   Partly Cloudy
9:58 AM 64.0 °F 56.8 °F 77% 30.07 in 10.0 mi North 8.1 mph - N/A   Mostly Cloudy
10:18 AM 64.4 °F 57.2 °F 77% 30.07 in 10.0 mi North 11.5 mph - N/A   Scattered Clouds
10:23 AM 64.4 °F 57.2 °F 77% 30.07 in 10.0 mi North 9.2 mph - N/A   Mostly Cloudy
10:33 AM 64.4 °F 57.2 °F 77% 30.06 in 10.0 mi North 10.4 mph - N/A   Scattered Clouds
10:58 AM 65.1 °F 57.0 °F 75% 30.06 in 10.0 mi NNE 8.1 mph - N/A   Partly Cloudy
11:08 AM 66.2 °F 57.2 °F 73% 30.07 in 10.0 mi North 8.1 mph - N/A   Mostly Cloudy
11:23 AM 66.2 °F 57.2 °F 73% 30.07 in 10.0 mi Variable 1.2 mph - N/A   Scattered Clouds
11:28 AM 66.2 °F 57.2 °F 73% 30.06 in 10.0 mi North 4.6 mph - N/A   Mostly Cloudy
11:43 AM 68.0 °F 57.2 °F 68% 30.06 in 10.0 mi NNW 9.2 mph - N/A   Scattered Clouds
11:48 AM 68.0 °F 57.2 °F 68% 30.06 in 10.0 mi North 8.1 mph - N/A   Mostly Cloudy
11:53 AM 68.0 °F 57.2 °F 68% 30.06 in 10.0 mi NNW 6.9 mph - N/A   Scattered Clouds
11:58 AM 68.7 °F 57.7 °F 68% 30.06 in 10.0 mi NW 6.9 mph - N/A   Scattered Clouds
12:58 PM 71.8 °F 56.8 °F 59% 30.04 in 10.0 mi NNW 5.8 mph - N/A   Clear
1:58 PM 73.2 °F 54.9 °F 52% 30.00 in 10.0 mi WNW 6.9 mph - N/A   Clear
2:58 PM 74.8 °F 53.4 °F 47% 29.98 in 10.0 mi North 5.8 mph - N/A   Clear
3:58 PM 75.2 °F 53.8 °F 47% 29.99 in 10.0 mi Variable 6.9 mph - N/A   Clear
4:58 PM 76.1 °F 53.1 °F 45% 29.98 in 10.0 mi NNW 6.9 mph - N/A   Clear
5:58 PM 73.0 °F 53.6 °F 50% 29.98 in 10.0 mi NW 4.6 mph - N/A   Clear
6:58 PM 68.2 °F 57.0 °F 67% 29.98 in 10.0 mi Calm Calm - N/A   Clear
7:58 PM 60.8 °F 56.8 °F 87% 29.99 in 10.0 mi Calm Calm - N/A   Clear
8:58 PM 58.5 °F 57.4 °F 96% 29.99 in 10.0 mi Calm Calm - N/A   Clear
9:58 PM 56.1 °F 55.0 °F 96% 30.00 in 10.0 mi Calm Calm - N/A   Clear
10:58 PM 55.9 °F 54.9 °F 96% 29.99 in 10.0 mi WSW 1.2 mph - N/A   Clear
11:58 PM 55.2 °F 53.6 °F 94% 29.99 in 9.0 mi Calm Calm - N/A   Clear